Tracking 19832 objects as of 24-Aug-2019
HD Live streaming from Space Station
objects crossing your sky now

CZ-3B R/B

Track CZ-3B R/B now!


NORAD ID: 43451
Int'l Code: 2018-041B
Perigee: 230.1 km
Apogee: 38,973.6 km
Inclination: 27.2 °
Period: 694.3 minutes
Semi major axis: 25972 km
RCS: Unknown
Launch date: May 3, 2018
Source: People's Republic of China (PRC)
Launch site: Xichang Space Center, China (XSC)

Note: This is a ROCKET BODY
aabbcc
Your satellite tracking list
Your tracking list is empty




NASA's NSSDC Master Catalog

Two Line Element Set (TLE):
1 43451U 18041B   19235.39608756  .00002417  00000-0  35189-3 0  9998
2 43451  27.2188 306.2157 7458463  74.0148 350.5022  2.07407210  9663
Source of the keplerian elements: AFSPC